TimeEDT,TemperatureF,Dew PointF,Humidity,Sea Level PressureIn,VisibilityMPH,Wind Direction,Wind SpeedMPH,Gust SpeedMPH,PrecipitationIn,Events,Conditions,WindDirDegrees,DateUTC
12:53 AM,71.1,64.9,81,30.05,10.0,SW,4.6,-,N/A,,Clear,220,2013-06-24 04:53:00
1:53 AM,71.1,64.9,81,30.06,10.0,SSW,3.5,-,N/A,,Clear,210,2013-06-24 05:53:00
2:53 AM,70.0,66.0,87,30.06,10.0,Calm,Calm,-,N/A,,Clear,0,2013-06-24 06:53:00
3:53 AM,68.0,64.9,90,30.06,6.0,South,3.5,-,N/A,,Clear,190,2013-06-24 07:53:00
4:53 AM,69.1,64.9,87,30.06,6.0,Calm,Calm,-,N/A,,Clear,0,2013-06-24 08:53:00
5:53 AM,68.0,64.9,90,30.06,4.0,Calm,Calm,-,N/A,,Clear,0,2013-06-24 09:53:00
6:23 AM,68.0,64.4,88,30.08,2.5,Calm,Calm,-,N/A,,Clear,0,2013-06-24 10:23:00
6:53 AM,68.0,66.0,93,30.06,2.5,Calm,Calm,-,N/A,,Clear,0,2013-06-24 10:53:00
7:12 AM,69.8,66.2,88,30.08,3.0,South,4.6,-,N/A,,Clear,170,2013-06-24 11:12:00
7:53 AM,72.0,66.9,84,30.07,5.0,South,5.8,-,N/A,,Haze,190,2013-06-24 11:53:00
8:53 AM,75.9,66.9,74,30.09,7.0,SSW,9.2,-,N/A,,Clear,210,2013-06-24 12:53:00
9:53 AM,79.0,66.9,66,30.08,9.0,SSW,10.4,-,N/A,,Partly Cloudy,210,2013-06-24 13:53:00
10:53 AM,82.0,68.0,62,30.08,9.0,SW,8.1,-,N/A,,Partly Cloudy,220,2013-06-24 14:53:00
11:42 AM,82.4,68.0,62,30.10,9.0,Variable,5.8,-,N/A,,Mostly Cloudy,0,2013-06-24 15:42:00
11:53 AM,82.0,68.0,62,30.09,9.0,SW,10.4,17.3,N/A,,Mostly Cloudy,220,2013-06-24 15:53:00
12:19 PM,80.6,68.0,65,30.10,8.0,WSW,6.9,-,N/A,,Scattered Clouds,240,2013-06-24 16:19:00
12:53 PM,81.0,66.9,62,30.08,9.0,Variable,5.8,-,N/A,,Mostly Cloudy,0,2013-06-24 16:53:00
1:53 PM,84.0,66.9,56,30.04,10.0,Variable,4.6,-,N/A,,Partly Cloudy,0,2013-06-24 17:53:00
2:53 PM,84.9,66.9,55,30.01,10.0,SSW,5.8,-,N/A,,Mostly Cloudy,200,2013-06-24 18:53:00
3:53 PM,86.0,66.0,51,29.99,10.0,Variable,4.6,-,N/A,,Partly Cloudy,0,2013-06-24 19:53:00
4:53 PM,87.1,66.9,51,29.99,10.0,SSW,9.2,-,N/A,,Mostly Cloudy,200,2013-06-24 20:53:00
5:53 PM,87.1,66.9,51,29.96,10.0,SSW,13.8,19.6,N/A,,Scattered Clouds,210,2013-06-24 21:53:00
6:53 PM,86.0,66.0,51,29.97,10.0,Variable,6.9,-,N/A,,Partly Cloudy,0,2013-06-24 22:53:00
7:53 PM,84.9,66.0,53,29.97,10.0,SW,10.4,-,N/A,,Clear,220,2013-06-24 23:53:00
8:53 PM,82.9,66.0,56,29.96,10.0,SW,6.9,-,N/A,,Clear,220,2013-06-25 00:53:00
9:53 PM,80.1,66.0,62,29.97,10.0,SSW,6.9,-,N/A,,Partly Cloudy,200,2013-06-25 01:53:00
10:37 PM,77.0,64.4,65,30.01,10.0,WNW,11.5,29.9,N/A,Thunderstorm,Scattered Clouds,300,2013-06-25 02:37:00
10:53 PM,73.9,64.9,73,29.99,10.0,SW,6.9,-,0.00,Thunderstorm,Mostly Cloudy,220,2013-06-25 02:53:00
11:06 PM,73.4,64.4,73,30.02,10.0,SW,10.4,19.6,N/A,,Mostly Cloudy,230,2013-06-25 03:06:00
11:53 PM,72.0,63.0,73,29.97,10.0,SW,3.5,-,N/A,,Clear,220,2013-06-25 03:53:00